OBJECT D, 58428

Orbit data source: Space-Track

You're viewing an Uncataloged Satellite

Recently launched and/or uncataloged satellites may have evolving metadata. Metadata may include but not limited to: Owner, Maufacturer, Bus, Motor, and Mission.

OBJECT D, 58428 is a satellite owned by VVKO VKS (CIS) in LEO that was launched on Fri, 27 Oct 2023 UTC via a SOYUZ-2-1B launch vehicle from the Plesetsk Missile And Space Complex (PKMTR). Unknown objects in Earth's orbit typically refer to objects detected orbiting the Earth but have not yet been identified or cataloged. These objects could be anything from previously untracked satellites, spent rocket stages, debris from satellite collisions, or even natural meteoroids temporarily captured by Earth's gravity.

Loading next visibility...
Identifier
58428, 2023-165D
Orbit
LEO
Country
Flag of CISCIS
Related business
Manufacturer
TSSKBP/ARSLO
Mission
Defense Sigint
Bus & Motor
UNK, Unknown motor
Mass
~10 kg wet, ~10 kg dry
Launch date (UTC)
2023-10-27 (3 years ago)
Launch vehicle
SOYUZ-2-1B
Launch site
Plesetsk Missile And Space Complex (PKMTR)
Object type
Unknown
Shape & HBR
Box, 0.1 m
Radar Cross Section
0.080 m², Medium (>0.1 m² and < 1m²)

Expand to show TLE details & history
Last TLE update: 4 days ago

TLE from 4 days ago
0 OBJECT D
1 58428U 23165D   26169.77632654  .00000044  00000-0  84895-4 0  9994
2 58428  67.1505 283.3010 0017556 313.2671  46.6948 13.97425947131055
Epoch: 2026-06-18T18:37Z
TLE epoch observation values (Epoch: 2026-06-18T18:37:54.613Z)
Latitude
-0.00002°
Longitude
96.80864°
Altitude
896.075 km
Speed
7.409 km/s
True Right ascension
18h 53m 12s
True Declination
0° 00' 00"
Sunlit
Object was in full shadow at epoch
Visualization orbit readout
Latitude
Unknown
Longitude
Unknown
Altitude
Unknown
Speed
Unknown
Apparent Right ascension
Unknown
Apparent Declination
Unknown
Sunlit
N/A
Visualization observer readout
Local Sidereal Time
23:07:43
Azimuth
Unknown
Elevation
Unknown
Doppler factor
Unknown
Orbital elements
Apogee altitude
913.85 km
Perigee altitude
888.291 km
Semi-major axis
7,279.208 km
Eccentricity
0.00176
Inclination
67.1505°
RAAN
283.301°
Arg. of periapsis
313.2671°
True anomaly
46.84142°
Mean anomaly
46.6948°
Eccentric anomaly
46.76809°
Mean motion
3.49476 °/min
Orbital period
103.01 mins
BSTAR
0.000084895
Loading maneuver chart data...
Computing Atmospheric mass density...
Loading historical data...
Loading historical data...
Loading historical data...
Loading historical data...
Loading historical data...
Loading historical data...
Loading historical data...
Other satellites on launch #165 in the year 2023 (2023-10-27 UTC)

Documentation

Showing up to 5 results
|